ARIANE 5 R/B (44036 NORAD) Tracking and Keplerian Element Data

This shows tracking and keplerian element data for the satellite.

Feedback or suggestion? Click here.




ElementValue
Catalog44036
NameARIANE 5 R/B
Epoch Orbit34
Epoch Day51.51800256
Epoch Year2019
RAAN270.4295
Inclination2.9868
Eccentricity0.7280097
Argument of Perigee189.5711
Mean Anonmoly138.3327
Mean Motion2.28340572
Decay Rate7.126E-05
L11 44036U 19007C 19051.51800256 .00007126 00000-0 19092-2 0 9996
L22 44036 2.9868 270.4295 7280097 189.5711 138.3327 2.28340572 343

Live tracking and technical data element details for ARIANE 5 R/B (NORAD 44036). ARIANE 5 R/B can be tracked NOW for your location showing map with azimuth and elevation plus other details from your city location.

Track the satellite on the map from your city or location and see movement details for azimuth, elevation, latitude, longitude, range, height, and movement on the map or in text.







IsCatalogInMostPopularTable: catalog: 44036, numindb: 6
Update: records affected: 1



GetName: 44036 ARIANE 5 R/B

Hit Count: updated at: Thu, 21 Feb 2019 12:18:26 GMT